EHI
10 8 6 6 14 31 43 42 33 27 24 16 6 2 1 0 0 0 0 2 6 17 30 35 33 28 23 20 16 11 8 6 4 1 0 0 0 0 0 0 0 0 0
17 14 11 10 16 27 36 36 28 22 18 11 4 1 1 0 0 0 0 2 6 13 22 29 27 22 19 17 15 12 8 5 3 1 0 0 0 0 0 0 0 0 0
26 22 16 14 17 21 25 25 21 16 12 8 4 3 2 1 2 1 0 2 5 8 13 19 20 17 15 15 14 12 9 5 2 1 0 0 0 0 0 0 0 0 0
28 22 16 13 15 17 17 15 12 10 8 7 6 6 4 3 3 2 0 1 4 6 8 11 14 14 14 12 9 8 8 6 3 1 0 0 0 0 0 0 0 0 0
21 18 14 11 12 14 12 8 6 5 5 4 5 6 6 4 3 2 1 1 3 5 6 7 9 10 9 7 5 4 5 6 4 2 2 1 0 0 0 0 0 0 0
13 12 10 9 8 8 7 4 3 2 3 3 3 3 3 3 3 3 2 2 3 4 4 4 5 5 4 3 3 3 3 5 6 5 4 2 1 0 0 0 0 0 0
7 7 6 5 4 3 2 1 1 1 2 2 1 0 1 1 2 3 3 2 3 4 3 3 3 2 2 2 3 3 3 4 5 6 5 3 2 0 0 0 0 0 0
4 4 3 2 1 0 0 0 0 0 0 1 0 0 0 0 1 2 2 1 2 2 2 1 2 1 0 1 1 2 2 3 4 5 5 3 1 0 0 0 0 0 0
2 2 2 1 0 0 0 0 0 0 0 0 0 0 0 0 0 1 1 0 1 1 1 0 1 1 0 0 0 0 1 1 3 5 4 2 0 0 0 0 0 0 0
1 1 1 0 0 0 0 0 0 0 0 0 0 0 0 0 0 0 0 0 0 0 0 0 1 1 1 0 0 0 0 0 2 4 4 2 0 0 0 0 0 0 0
0 0 0 0 0 0 0 0 0 0 0 0 0 0 0 0 0 0 0 0 0 0 0 0 1 2 2 1 0 0 0 0 2 3 2 1 0 0 0 0 0 0 0
0 0 0 0 0 0 0 0 0 0 0 0 0 0 0 0 0 0 0 0 0 0 0 0 1 2 3 2 1 0 0 0 1 1 0 0 0 0 0 0 0 0 0
0 0 0 0 0 0 0 0 0 0 0 0 0 0 0 0 0 0 0 0 0 0 0 0 0 1 2 2 1 0 0 0 0 0 0 0 0 0 0 0 0 0 0
0 0 0 0 0 0 0 0 0 0 0 0 0 0 0 0 0 0 0 0 0 0 0 0 0 0 1 2 1 0 0 0 0 0 0 0 0 0 0 0 0 0 0
0 0 0 0 0 0 0 0 0 0 0 0 0 0 0 0 0 0 0 0 0 0 0 0 0 0 1 1 1 0 0 0 0 0 0 0 0 0 0 0 0 0 0
0 0 0 0 0 0 0 0 0 0 0 0 0 0 0 0 0 0 0 0 0 0 0 0 0 0 0 0 0 0 0 0 0 0 0 0 0 0 0 0 0 0 0
0 0 0 0 0 0 0 0 0 0 0 0 0 0 0 0 0 0 0 0 0 0 0 0 0 0 0 0 0 0 0 0 0 0 0 0 0 0 0 0 0 0 0
0 0 0 0 0 0 0 0 0 0 0 0 0 0 0 0 0 0 0 0 0 0 0 0 0 0 0 0 0 0 0 0 0 0 0 0 0 0 0 0 0 0 0
0 0 0 0 0 0 0 0 0 0 0 0 0 0 0 0 0 0 0 0 0 0 0 0 0 0 0 0 0 0 0 0 0 0 0 0 0 0 0 0 0 0 0
0 0 0 0 0 0 0 0 0 0 0 0 0 0 0 0 0 0 0 0 0 0 0 0 0 0 0 0 0 0 0 0 0 0 0 0 0 0 0 0 0 0 0
0 0 0 0 0 0 0 0 0 0 0 0 0 0 0 0 0 0 0 0 0 0 0 0 0 0 0 0 0 0 0 0 0 0 0 0 0 0 0 0 0 0 0
0 0 0 0 0 0 0 0 0 0 0 0 0 0 0 0 0 0 0 0 0 0 0 0 0 0 0 0 0 0 0 0 0 0 0 0 0 0 0 0 0 0 0
0 0 0 0 0 0 0 0 0 0 0 0 0 0 0 0 0 0 0 0 0 0 0 0 0 0 0 0 0 0 0 0 0 0 0 0 0 0 0 0 0 0 0
0 0 0 0 0 0 0 0 0 0 0 0 0 0 0 0 0 0 0 0 0 0 0 0 0 0 0 0 0 0 0 0 0 0 0 0 0 0 0 0 0 0 0
0 0 0 0 0 0 0 0 0 0 0 0 0 0 0 0 0 0 0 0 0 0 0 0 0 0 0 0 0 0 0 0 0 0 0 0 0 0 0 0 0 0 0
0 0 0 0 0 0 0 0 0 0 0 0 0 0 0 0 0 0 0 0 0 0 0 0 0 0 0 0 0 0 0 0 0 0 0 0 0 0 0 0 0 0 0
Wind_Speed
5 5 4 4 6 5 6 6 6 7 8 8 8 9 9 9 8 6 4 11 13 17 20 21 20 20 20 20 20 20 20 19 18 17 16 16 16 15 15 14 13 13 12
5 4 3 4 4 5 6 6 7 7 7 6 8 9 9 8 9 8 6 7 13 16 19 21 21 21 21 21 20 20 20 19 18 18 17 16 16 15 15 15 15 14 13
5 4 4 3 3 4 5 4 5 5 5 6 8 9 7 8 7 8 7 6 7 14 19 21 20 20 21 21 21 20 20 19 18 18 18 17 17 16 16 16 15 15 14
4 3 3 3 3 3 3 3 3 4 5 5 5 6 6 6 8 8 7 7 7 8 13 20 20 20 21 22 22 21 20 19 19 19 19 19 18 17 17 16 16 15 15
3 2 3 3 2 2 2 3 3 3 4 5 5 5 5 5 6 8 8 9 9 8 7 13 20 21 21 22 21 21 21 20 20 20 20 20 19 19 18 17 16 16 15
2 2 2 2 2 2 2 3 3 4 3 4 6 6 5 5 5 6 8 7 7 10 10 10 10 14 20 20 20 20 21 21 20 21 21 21 21 19 19 18 17 17 16
1 1 1 2 2 2 3 3 3 4 4 3 2 3 4 5 6 6 6 6 7 9 9 10 8 7 8 18 19 19 20 21 21 21 21 20 20 20 19 19 18 17 17
1 1 1 2 2 2 3 3 3 2 3 3 3 2 2 3 4 7 6 7 7 7 8 11 9 9 7 6 10 18 19 19 20 20 20 20 20 19 19 19 18 18 17
2 2 2 2 2 2 2 2 2 3 3 2 3 3 3 4 3 3 5 6 7 6 7 7 9 10 10 6 7 13 18 17 17 19 19 19 19 18 18 19 19 18 18
2 2 3 3 3 2 2 3 2 2 2 2 2 3 4 3 2 2 2 3 6 7 7 7 8 9 9 7 8 11 15 16 16 17 17 18 18 17 17 18 19 19 18
4 3 3 3 3 3 3 3 2 2 2 2 2 2 3 3 3 3 3 2 1 3 5 6 6 6 8 7 7 10 14 14 14 15 15 15 16 17 17 18 18 18 18
3 3 3 3 4 3 4 4 3 3 3 2 2 2 2 2 3 3 3 3 2 3 3 4 5 6 6 7 9 13 14 13 13 13 13 13 13 14 15 16 17 17 18
3 4 3 3 3 4 4 4 3 3 3 3 3 2 2 3 2 3 3 2 2 2 1 2 4 5 6 5 6 12 12 13 12 12 11 11 11 11 12 13 14 15 16
4 4 4 4 5 5 5 4 3 4 3 4 4 3 2 3 2 2 3 2 2 1 1 2 1 3 4 4 6 9 7 11 11 11 10 10 10 10 10 11 11 12 12
4 4 4 4 5 5 5 5 4 5 4 4 4 3 3 3 2 2 2 3 3 3 3 2 2 2 3 4 7 5 5 9 11 10 10 9 9 9 9 9 9 9 9
4 4 4 5 5 5 6 5 4 5 5 5 4 4 3 3 2 2 2 2 3 3 3 3 2 2 3 4 6 5 5 10 10 9 9 8 8 8 8 7 7 7 7
5 5 5 5 6 6 6 6 6 6 7 6 5 5 5 4 3 3 2 2 2 2 3 2 1 2 3 5 5 5 5 5 5 9 9 8 8 7 7 7 6 6 5
6 6 6 6 6 6 6 7 8 8 7 8 7 6 6 4 4 3 3 3 2 2 3 3 2 2 3 6 6 7 6 5 4 8 9 9 8 8 7 6 6 5 4
6 6 6 6 6 6 7 7 8 8 8 8 8 7 7 5 5 4 4 3 3 2 2 3 3 2 3 5 6 5 6 4 5 6 8 8 8 8 7 6 5 4 4
6 6 6 6 7 7 7 7 8 8 8 8 7 7 7 7 7 6 5 4 3 2 3 3 3 3 3 4 5 6 5 3 4 4 5 5 6 7 6 5 5 4 4
8 6 6 7 7 6 7 7 7 8 7 7 7 7 8 10 11 8 6 5 5 3 3 3 3 3 4 5 5 5 5 4 2 3 4 3 3 3 3 4 4 4 4
7 7 7 7 7 8 9 9 7 6 6 7 7 7 7 9 11 12 11 10 9 6 5 4 3 4 5 5 4 6 6 6 4 4 4 3 3 3 2 2 3 4 4
7 7 8 7 8 9 12 12 11 7 6 6 7 7 7 8 9 7 9 10 9 10 9 6 5 5 5 6 7 7 7 6 4 6 5 3 3 2 2 2 4 4 4
7 7 8 8 8 9 12 12 12 8 6 7 8 8 8 6 7 7 7 6 6 6 8 5 5 6 5 6 7 7 7 5 4 4 4 4 3 2 2 2 4 5 5
7 7 7 8 8 9 11 12 10 5 5 7 8 8 8 8 10 11 7 7 6 4 6 9 8 7 8 8 7 6 6 7 5 4 3 4 4 3 2 2 2 5 6
7 7 7 7 7 8 10 11 10 4 5 5 6 7 10 10 11 12 8 7 7 6 5 6 5 5 5 6 9 7 7 7 5 4 4 5 5 4 3 1 2 2 3
Wind_Direction
220 223 223 220 215 211 210 213 218 217 216 216 219 221 220 220 221 217 227 233 222 210 207 207 206 203 202 200 199 200 199 200 199 198 199 199 198 195 194 194 193 192 190
219 221 230 231 219 213 212 210 218 220 220 217 223 225 222 217 220 216 217 228 226 216 212 210 209 209 208 206 204 202 202 203 201 200 201 202 201 199 199 199 198 197 196
209 207 218 234 230 220 216 218 223 223 227 226 230 230 226 219 215 213 213 214 223 224 218 214 213 211 212 211 209 207 205 204 203 202 203 204 203 202 202 202 202 201 199
197 199 218 233 234 221 214 215 218 220 226 228 231 237 232 221 217 213 209 211 212 221 223 221 218 216 214 214 213 211 208 206 205 204 205 205 205 205 204 204 205 204 203
195 195 221 236 240 234 225 233 221 215 226 233 232 234 234 231 222 223 215 213 209 208 210 223 223 220 217 216 216 214 211 209 208 208 208 208 207 207 206 206 206 206 206
205 199 221 246 241 235 242 239 236 228 225 231 246 248 240 238 230 224 220 217 210 211 210 213 219 222 219 217 216 215 214 212 211 211 211 212 210 209 207 207 207 208 208
227 218 243 251 236 230 245 248 244 239 234 214 224 265 260 242 236 230 218 210 215 217 213 211 208 209 217 218 216 216 217 217 214 213 213 213 213 210 209 209 208 209 210
238 214 218 238 242 245 261 260 238 231 237 200 186 216 278 285 252 235 216 213 216 213 217 213 208 206 209 204 213 216 218 219 217 214 213 214 214 212 210 210 210 210 211
244 223 218 218 229 220 239 250 239 228 238 231 199 189 198 235 270 266 230 220 208 207 214 209 207 207 206 201 202 214 216 216 217 217 215 213 212 211 209 210 210 211 212
274 254 236 222 215 213 224 237 225 219 217 237 240 224 218 206 211 278 287 234 211 206 210 211 208 204 201 196 201 203 208 210 213 216 215 213 210 209 209 210 212 213 213
289 275 246 227 220 218 222 224 217 214 207 218 233 236 238 233 219 213 257 278 253 220 209 207 202 200 195 192 194 203 202 204 207 211 214 212 210 208 208 211 215 216 215
285 277 260 236 227 222 222 219 213 214 219 221 230 233 231 232 218 202 219 234 236 243 220 207 197 192 190 190 198 197 197 198 200 204 207 206 205 205 207 210 215 218 218
272 266 260 243 235 228 226 219 214 223 226 229 229 233 238 243 227 198 200 214 227 253 236 220 202 185 185 181 191 190 192 190 193 195 196 198 200 204 207 210 215 218 219
252 254 252 246 241 235 230 220 219 223 222 231 236 226 233 242 236 209 193 185 206 255 244 232 203 184 175 173 179 175 177 179 180 183 187 190 194 200 205 209 212 214 216
268 269 260 255 250 240 230 218 220 224 216 223 228 223 221 230 233 230 211 193 181 200 232 231 197 186 165 153 161 159 159 166 167 173 176 179 184 189 194 199 202 203 206
270 276 269 263 257 248 236 223 225 227 219 222 217 217 223 223 223 220 215 213 193 186 212 223 207 176 159 148 146 145 153 152 156 163 168 172 175 179 182 181 182 185 190
269 266 261 259 255 250 243 229 227 223 220 223 222 215 222 217 207 213 204 203 207 189 208 231 215 151 137 145 137 131 130 132 145 153 153 153 154 156 157 156 158 166 176
271 264 261 257 254 252 242 231 233 230 219 220 219 214 222 218 210 209 194 195 203 197 195 207 195 168 157 158 147 142 137 137 136 147 146 145 144 143 144 148 154 162 173
273 270 265 260 257 252 244 236 230 227 222 220 216 209 213 211 211 207 196 191 193 198 188 183 191 173 157 153 140 134 129 128 133 137 136 137 138 138 139 143 150 157 167
276 271 264 261 259 254 247 241 234 228 223 221 219 214 207 204 208 202 194 187 180 175 172 170 175 175 159 149 145 146 143 135 131 133 126 125 129 128 129 130 136 144 154
285 273 269 266 262 258 252 244 233 232 222 218 218 220 217 210 207 200 193 181 173 172 167 165 176 173 163 159 168 159 153 138 116 131 131 134 129 122 116 119 124 133 140
280 276 272 266 262 266 266 257 240 231 221 214 214 219 223 219 214 208 201 185 175 175 175 171 176 182 183 167 157 161 154 156 166 161 145 148 144 138 130 120 128 132 135
277 276 271 264 259 259 258 256 247 227 216 216 214 214 222 218 201 201 205 195 190 188 179 172 177 186 183 172 164 168 172 166 165 161 142 145 145 140 128 119 132 132 131
278 274 272 266 262 263 258 254 248 229 219 219 214 208 206 207 201 189 194 193 193 196 192 183 185 190 186 174 173 173 167 142 108 147 143 139 141 126 111 101 128 134 133
283 277 272 268 264 266 261 253 240 221 220 225 221 213 203 200 205 192 184 188 193 206 206 192 193 194 188 180 165 150 155 154 155 169 162 133 134 121 111 110 118 131 133
281 283 281 275 267 266 265 255 236 216 216 219 220 218 211 201 201 195 190 186 190 198 186 187 193 201 195 188 179 172 168 166 158 166 169 140 141 136 134 129 128 131 122